Hulianwang W. Digui 16-04

operational
NORAD ID: 67062 Int'l Des: 2025-295 Owner: ZXW Country: CN Constellation: xingwang
LEOCIRCULAR

关于 Hulianwang W. Digui 16-04

正在加载描述...

实时位置

正在加载3D地球...

即将过境

高度历史

Altitude vs Time

uPlot chart will show altitude changes over time

两行轨道根数

1 67062U 25295D 25346.21278330 -.00000151 00000-0 37539-5 0 9990
2 67062 50.0052 14.4731 0012497 251.2247 108.7311 14.25916921 46
Epoch: Dec 12, 2025 • Age: 51 hours

当前状态

高度 818.5 km
速度 7.45 km/s
星下点 47.93°N, 86.19°W
发射日期 Dec 11, 2025
运行时间 3 days
类型 other

技术详情

分类 Payload
质量 800.00 kg
干质量 800.00 kg
总质量 800.00 kg
长度 3.00 m
直径 1.00 m
跨度 10.00 m
形状 Box + 2 Pan
制造商 YINNT
平台类型 Guowang Y
阶段状态 In Orbit
所有者/国家 ZXW/CN

大型星座

Loading constellations...